Time,TemperatureF,DewpointF,PressureIn,WindDirection,WindDirectionDegrees,WindSpeedMPH,WindSpeedGustMPH,Humidity,HourlyPrecipIn,Conditions,Clouds,dailyrainin,SoftwareType,DateUTC
2013-02-25 00:00:00,23.6,21.0,30.23,NNW,340,0.0,-999.0,88,-99.99,,,0.17,weatherlink.com 1.10,2013-02-25 05:00:00,
2013-02-25 00:15:00,21.9,19.0,30.23,NNW,340,0.0,-999.0,88,-99.99,,,0.17,weatherlink.com 1.10,2013-02-25 05:15:00,
2013-02-25 00:30:00,18.8,16.0,30.23,NNW,340,2.0,-999.0,88,-99.99,,,0.17,weatherlink.com 1.10,2013-02-25 05:30:00,
2013-02-25 00:45:00,19.4,17.0,30.24,NNW,340,1.0,-999.0,90,-99.99,,,0.17,weatherlink.com 1.10,2013-02-25 05:45:00,
2013-02-25 01:00:00,22.2,20.0,30.24,NNW,340,2.0,-999.0,91,-99.99,,,0.17,weatherlink.com 1.10,2013-02-25 06:00:00,
2013-02-25 01:15:00,22.8,21.0,30.24,NNW,340,0.0,-999.0,91,-99.99,,,0.17,weatherlink.com 1.10,2013-02-25 06:15:00,
2013-02-25 01:30:00,23.2,21.0,30.25,NNW,340,0.0,-999.0,92,-99.99,,,0.17,weatherlink.com 1.10,2013-02-25 06:30:00,
2013-02-25 01:45:00,23.2,21.0,30.25,NNW,340,0.0,-999.0,92,-99.99,,,0.17,weatherlink.com 1.10,2013-02-25 06:45:00,
2013-02-25 02:00:00,22.9,21.0,30.25,NNW,340,1.0,-999.0,92,-99.99,,,0.17,weatherlink.com 1.10,2013-02-25 07:00:00,
2013-02-25 02:15:00,22.8,21.0,30.25,NNW,340,0.0,-999.0,92,-99.99,,,0.17,weatherlink.com 1.10,2013-02-25 07:15:00,
2013-02-25 02:30:00,22.9,21.0,30.25,NNW,340,0.0,-999.0,92,-99.99,,,0.17,weatherlink.com 1.10,2013-02-25 07:30:00,
2013-02-25 02:45:00,22.9,21.0,30.26,NNW,340,0.0,-999.0,92,-99.99,,,0.17,weatherlink.com 1.10,2013-02-25 07:45:00,
2013-02-25 03:00:00,23.1,21.0,30.25,NNW,340,0.0,-999.0,92,-99.99,,,0.17,weatherlink.com 1.10,2013-02-25 08:00:00,
2013-02-25 03:15:00,22.6,21.0,30.26,NNW,340,0.0,-999.0,92,-99.99,,,0.17,weatherlink.com 1.10,2013-02-25 08:15:00,
2013-02-25 03:30:00,22.5,21.0,30.26,NNW,340,0.0,-999.0,92,-99.99,,,0.17,weatherlink.com 1.10,2013-02-25 08:30:00,
2013-02-25 03:45:00,22.6,21.0,30.27,NNW,340,0.0,-999.0,92,-99.99,,,0.17,weatherlink.com 1.10,2013-02-25 08:45:00,
2013-02-25 04:00:00,22.6,21.0,30.27,NNW,340,0.0,-999.0,92,-99.99,,,0.17,weatherlink.com 1.10,2013-02-25 09:00:00,
2013-02-25 04:15:00,22.7,21.0,30.27,NNW,340,0.0,-999.0,92,-99.99,,,0.17,weatherlink.com 1.10,2013-02-25 09:15:00,
2013-02-25 04:30:00,22.8,21.0,30.27,NNW,340,0.0,-999.0,92,-99.99,,,0.17,weatherlink.com 1.10,2013-02-25 09:30:00,
2013-02-25 04:45:00,22.9,21.0,30.28,NNW,340,0.0,-999.0,93,-99.99,,,0.17,weatherlink.com 1.10,2013-02-25 09:45:00,
2013-02-25 05:00:00,23.4,22.0,30.28,NNW,340,0.0,-999.0,93,-99.99,,,0.17,weatherlink.com 1.10,2013-02-25 10:00:00,
2013-02-25 05:15:00,23.7,22.0,30.28,NNW,340,0.0,-999.0,93,-99.99,,,0.17,weatherlink.com 1.10,2013-02-25 10:15:00,
2013-02-25 05:30:00,23.8,22.0,30.28,NNW,340,0.0,-999.0,93,-99.99,,,0.17,weatherlink.com 1.10,2013-02-25 10:30:00,
2013-02-25 05:45:00,23.5,22.0,30.28,NNW,340,0.0,-999.0,93,-99.99,,,0.17,weatherlink.com 1.10,2013-02-25 10:45:00,
2013-02-25 06:00:00,23.4,22.0,30.28,NNW,340,0.0,-999.0,93,-99.99,,,0.17,weatherlink.com 1.10,2013-02-25 11:00:00,
2013-02-25 06:15:00,23.4,22.0,30.29,NNW,340,0.0,-999.0,93,-99.99,,,0.17,weatherlink.com 1.10,2013-02-25 11:15:00,
2013-02-25 06:30:00,23.4,22.0,30.29,NNW,340,0.0,-999.0,93,-99.99,,,0.17,weatherlink.com 1.10,2013-02-25 11:30:00,
2013-02-25 06:45:00,23.8,22.0,30.28,NNW,340,0.0,-999.0,93,-99.99,,,0.17,weatherlink.com 1.10,2013-02-25 11:45:00,
2013-02-25 07:01:00,23.9,22.0,30.29,NNW,340,0.0,-999.0,93,-99.99,,,0.17,weatherlink.com 1.10,2013-02-25 12:01:00,
2013-02-25 07:16:00,23.8,22.0,30.29,NNW,340,0.0,-999.0,93,-99.99,,,0.17,weatherlink.com 1.10,2013-02-25 12:16:00,
2013-02-25 07:30:00,23.7,22.0,30.29,NNW,340,0.0,-999.0,93,-99.99,,,0.17,weatherlink.com 1.10,2013-02-25 12:30:00,
2013-02-25 07:46:00,23.8,22.0,30.29,NNW,340,0.0,-999.0,93,-99.99,,,0.17,weatherlink.com 1.10,2013-02-25 12:46:00,
2013-02-25 08:01:00,23.9,22.0,30.29,NNW,340,0.0,-999.0,93,-99.99,,,0.17,weatherlink.com 1.10,2013-02-25 13:01:00,
2013-02-25 08:16:00,24.7,23.0,30.29,NNW,340,0.0,-999.0,93,-99.99,,,0.17,weatherlink.com 1.10,2013-02-25 13:16:00,
2013-02-25 08:31:00,25.3,24.0,30.29,NNW,340,0.0,-999.0,93,-99.99,,,0.17,weatherlink.com 1.10,2013-02-25 13:31:00,
2013-02-25 08:46:00,25.4,24.0,30.30,WSW,241,0.0,-999.0,93,-99.99,,,0.17,weatherlink.com 1.10,2013-02-25 13:46:00,
2013-02-25 09:01:00,26.0,24.0,30.30,WSW,242,1.0,-999.0,93,-99.99,,,0.17,weatherlink.com 1.10,2013-02-25 14:01:00,
2013-02-25 09:16:00,26.0,24.0,30.30,WSW,256,0.0,-999.0,93,-99.99,,,0.00,weatherlink.com 1.10,2013-02-25 14:16:00,
2013-02-25 09:31:00,26.5,25.0,30.30,WSW,256,0.0,-999.0,93,-99.99,,,0.00,weatherlink.com 1.10,2013-02-25 14:31:00,
2013-02-25 09:46:00,27.7,26.0,30.30,WSW,256,0.0,-999.0,93,-99.99,,,0.00,weatherlink.com 1.10,2013-02-25 14:46:00,
2013-02-25 10:01:00,29.2,27.0,30.30,WSW,257,0.0,-999.0,92,-99.99,,,0.00,weatherlink.com 1.10,2013-02-25 15:01:00,
2013-02-25 10:16:00,28.8,27.0,30.30,WSW,257,2.0,-999.0,91,-99.99,,,0.00,weatherlink.com 1.10,2013-02-25 15:16:00,
2013-02-25 10:31:00,28.4,26.0,30.31,WSW,257,0.0,-999.0,91,-99.99,,,0.00,weatherlink.com 1.10,2013-02-25 15:31:00,
2013-02-25 10:46:00,28.8,27.0,30.30,WSW,256,0.0,-999.0,91,-99.99,,,0.00,weatherlink.com 1.10,2013-02-25 15:46:00,
2013-02-25 11:01:00,29.3,27.0,30.31,WSW,256,1.0,-999.0,91,-99.99,,,0.01,weatherlink.com 1.10,2013-02-25 16:01:00,
2013-02-25 11:16:00,29.1,27.0,30.31,West,281,0.0,-999.0,91,-99.99,,,0.01,weatherlink.com 1.10,2013-02-25 16:16:00,
2013-02-25 11:31:00,29.8,28.0,30.31,West,281,0.0,-999.0,91,-99.99,,,0.01,weatherlink.com 1.10,2013-02-25 16:31:00,
2013-02-25 11:46:00,31.0,29.0,30.31,West,281,0.0,-999.0,90,-99.99,,,0.02,weatherlink.com 1.10,2013-02-25 16:46:00,
2013-02-25 12:01:00,31.0,28.0,30.31,West,281,0.0,-999.0,88,-99.99,,,0.02,weatherlink.com 1.10,2013-02-25 17:01:00,
2013-02-25 12:16:00,30.9,28.0,30.30,West,281,0.0,-999.0,88,-99.99,,,0.02,weatherlink.com 1.10,2013-02-25 17:16:00,
2013-02-25 12:31:00,31.3,28.0,30.30,West,281,0.0,-999.0,87,-99.99,,,0.03,weatherlink.com 1.10,2013-02-25 17:31:00,
2013-02-25 12:46:00,30.8,27.0,30.30,West,281,2.0,-999.0,85,-99.99,,,0.03,weatherlink.com 1.10,2013-02-25 17:46:00,
2013-02-25 13:01:00,30.7,26.0,30.29,West,265,2.0,-999.0,84,-99.99,,,0.03,weatherlink.com 1.10,2013-02-25 18:01:00,
2013-02-25 13:16:00,30.7,26.0,30.28,West,265,1.0,-999.0,84,-99.99,,,0.04,weatherlink.com 1.10,2013-02-25 18:16:00,
2013-02-25 13:31:00,31.2,27.0,30.28,West,265,2.0,-999.0,83,-99.99,,,0.04,weatherlink.com 1.10,2013-02-25 18:31:00,
2013-02-25 13:46:00,31.6,27.0,30.29,West,265,1.0,-999.0,82,-99.99,,,0.04,weatherlink.com 1.10,2013-02-25 18:46:00,
2013-02-25 14:01:00,31.7,27.0,30.29,West,265,0.0,-999.0,82,-99.99,,,0.05,weatherlink.com 1.10,2013-02-25 19:01:00,
2013-02-25 14:16:00,32.2,27.0,30.28,West,265,0.0,-999.0,80,-99.99,,,0.05,weatherlink.com 1.10,2013-02-25 19:16:00,
2013-02-25 14:31:00,32.1,27.0,30.29,SW,228,3.0,-999.0,80,-99.99,,,0.05,weatherlink.com 1.10,2013-02-25 19:31:00,
2013-02-25 14:46:00,31.9,27.0,30.28,SW,217,1.0,-999.0,81,-99.99,,,0.05,weatherlink.com 1.10,2013-02-25 19:46:00,
2013-02-25 15:01:00,31.8,27.0,30.28,SSW,200,5.0,-999.0,81,-99.99,,,0.05,weatherlink.com 1.10,2013-02-25 20:01:00,
2013-02-25 15:16:00,32.0,27.0,30.28,SSW,213,3.0,-999.0,80,-99.99,,,0.06,weatherlink.com 1.10,2013-02-25 20:16:00,
2013-02-25 15:31:00,31.9,27.0,30.28,SSW,213,2.0,-999.0,81,-99.99,,,0.06,weatherlink.com 1.10,2013-02-25 20:31:00,
2013-02-25 15:46:00,31.7,27.0,30.28,SSW,205,3.0,-999.0,82,-99.99,,,0.06,weatherlink.com 1.10,2013-02-25 20:46:00,
2013-02-25 16:01:00,31.6,27.0,30.28,SSW,205,5.0,-999.0,82,-99.99,,,0.06,weatherlink.com 1.10,2013-02-25 21:01:00,
2013-02-25 16:16:00,31.5,27.0,30.28,SSW,205,2.0,-999.0,83,-99.99,,,0.06,weatherlink.com 1.10,2013-02-25 21:16:00,
2013-02-25 16:31:00,31.6,27.0,30.28,SSW,205,1.0,-999.0,83,-99.99,,,0.06,weatherlink.com 1.10,2013-02-25 21:31:00,
2013-02-25 16:46:00,31.6,27.0,30.28,SE,137,1.0,-999.0,84,-99.99,,,0.06,weatherlink.com 1.10,2013-02-25 21:46:00,
2013-02-25 17:01:00,31.5,27.0,30.28,SE,137,3.0,-999.0,84,-99.99,,,0.06,weatherlink.com 1.10,2013-02-25 22:01:00,
2013-02-25 17:16:00,31.4,27.0,30.28,SE,137,2.0,-999.0,84,-99.99,,,0.06,weatherlink.com 1.10,2013-02-25 22:16:00,
2013-02-25 17:46:00,31.2,27.0,30.28,SE,137,1.0,-999.0,85,-99.99,,,0.06,weatherlink.com 1.10,2013-02-25 22:46:00,
2013-02-25 18:01:00,31.2,27.0,30.29,SE,140,3.0,-999.0,85,-99.99,,,0.06,weatherlink.com 1.10,2013-02-25 23:01:00,
2013-02-25 18:16:00,31.1,27.0,30.29,SE,139,1.0,-999.0,86,-99.99,,,0.06,weatherlink.com 1.10,2013-02-25 23:16:00,
2013-02-25 18:31:00,30.7,27.0,30.28,SE,138,1.0,-999.0,87,-99.99,,,0.06,weatherlink.com 1.10,2013-02-25 23:31:00,
2013-02-25 18:46:00,30.8,28.0,30.29,SE,132,2.0,-999.0,88,-99.99,,,0.06,weatherlink.com 1.10,2013-02-25 23:46:00,
2013-02-25 19:01:00,30.8,28.0,30.29,SE,145,3.0,-999.0,88,-99.99,,,0.06,weatherlink.com 1.10,2013-02-26 00:01:00,
2013-02-25 19:16:00,30.8,28.0,30.29,SE,132,3.0,-999.0,88,-99.99,,,0.06,weatherlink.com 1.10,2013-02-26 00:16:00,
2013-02-25 19:31:00,30.7,28.0,30.29,SE,144,2.0,-999.0,88,-99.99,,,0.06,weatherlink.com 1.10,2013-02-26 00:31:00,
2013-02-25 19:46:00,30.6,28.0,30.30,SSE,148,3.0,-999.0,88,-99.99,,,0.06,weatherlink.com 1.10,2013-02-26 00:46:00,
2013-02-25 20:01:00,30.4,27.0,30.29,SSE,147,2.0,-999.0,88,-99.99,,,0.06,weatherlink.com 1.10,2013-02-26 01:01:00,
2013-02-25 20:16:00,30.4,27.0,30.29,SE,146,3.0,-999.0,88,-99.99,,,0.06,weatherlink.com 1.10,2013-02-26 01:16:00,
2013-02-25 20:32:00,30.4,27.0,30.29,SSE,152,3.0,-999.0,88,-99.99,,,0.06,weatherlink.com 1.10,2013-02-26 01:32:00,
2013-02-25 20:47:00,30.4,27.0,30.30,SSE,148,5.0,-999.0,87,-99.99,,,0.06,weatherlink.com 1.10,2013-02-26 01:47:00,
2013-02-25 21:17:00,30.2,27.0,30.29,SSE,148,3.0,-999.0,88,-99.99,,,0.06,weatherlink.com 1.10,2013-02-26 02:17:00,
2013-02-25 21:32:00,30.1,27.0,30.29,SE,132,5.0,-999.0,88,-99.99,,,0.06,weatherlink.com 1.10,2013-02-26 02:32:00,
2013-02-25 21:47:00,30.1,27.0,30.29,SE,134,3.0,-999.0,88,-99.99,,,0.06,weatherlink.com 1.10,2013-02-26 02:47:00,
2013-02-25 22:02:00,30.1,27.0,30.28,SE,141,2.0,-999.0,89,-99.99,,,0.06,weatherlink.com 1.10,2013-02-26 03:02:00,
2013-02-25 22:17:00,30.1,27.0,30.28,ESE,121,2.0,-999.0,89,-99.99,,,0.06,weatherlink.com 1.10,2013-02-26 03:17:00,
2013-02-25 22:32:00,30.1,27.0,30.28,ESE,107,1.0,-999.0,89,-99.99,,,0.06,weatherlink.com 1.10,2013-02-26 03:32:00,
2013-02-25 22:47:00,30.2,27.0,30.28,ESE,103,4.0,-999.0,89,-99.99,,,0.06,weatherlink.com 1.10,2013-02-26 03:47:00,
2013-02-25 23:02:00,30.3,28.0,30.27,ESE,113,1.0,-999.0,89,-99.99,,,0.06,weatherlink.com 1.10,2013-02-26 04:02:00,
2013-02-25 23:17:00,30.3,28.0,30.27,East,101,2.0,-999.0,89,-99.99,,,0.06,weatherlink.com 1.10,2013-02-26 04:17:00,
2013-02-25 23:32:00,30.3,28.0,30.27,East,101,1.0,-999.0,89,-99.99,,,0.06,weatherlink.com 1.10,2013-02-26 04:32:00,
2013-02-25 23:47:00,30.1,27.0,30.27,East,101,1.0,-999.0,89,-99.99,,,0.06,weatherlink.com 1.10,2013-02-26 04:47:00,